| time (UTC) | temp C | wind direction | speed KPH | gust KPH | rain 1hr cm | rain 24hr cm | rain mn cm | humidity % | barometer mb |
| 20260906020029 | 18 | 36 | 0.0 | 3.2 | 0.00 | 0.00 | 0.00 | 55 | 1018.2 |
| 20260906013030 | 20 | 41 | 1.6 | 6.4 | 0.00 | 0.00 | 0.00 | 51 | 1018.5 |
| 20260906011532 | 21 | 39 | 1.6 | 8.0 | 0.00 | 0.00 | 0.00 | 49 | 1018.5 |
| 20260906010030 | 21 | 32 | 3.2 | 11.3 | 0.00 | 0.00 | 0.00 | 45 | 1018.4 |
| 20260906004603 | 24 | 36 | 4.8 | 14.5 | 0.00 | 0.00 | 0.00 | 37 | 1018.0 |
| 20260906003031 | 26 | 43 | 1.6 | 6.4 | 0.00 | 0.00 | 0.00 | 33 | 1018.0 |
| 20260906001529 | 26 | 74 | 0.0 | 4.8 | 0.00 | 0.00 | 0.00 | 33 | 1017.9 |
| 20260906000108 | 26 | 64 | 0.0 | 3.2 | 0.00 | 0.00 | 0.00 | 34 | 1017.8 |
| 20260905234647 | 26 | 88 | 0.0 | 1.6 | 0.00 | 0.00 | 0.00 | 34 | 1017.8 |
| 20260905233028 | 26 | 96 | 1.6 | 3.2 | 0.00 | 0.00 | 0.00 | 34 | 1018.0 |
| 20260905231528 | 25 | 116 | 1.6 | 9.7 | 0.00 | 0.00 | 0.00 | 37 | 1018.2 |
| 20260905230032 | 23 | 163 | 0.0 | 3.2 | 0.00 | 0.00 | 0.00 | 37 | 1018.2 |
| 20260905221532 | 23 | 149 | 0.0 | 4.8 | 0.00 | 0.00 | 0.00 | 39 | 1018.6 |
| 20260905220032 | 23 | 144 | 0.0 | 4.8 | 0.00 | 0.00 | 0.00 | 42 | 1018.8 |
| 20260905214532 | 22 | 134 | 0.0 | 3.2 | 0.00 | 0.00 | 0.00 | 45 | 1019.0 |
| 20260905213037 | 22 | 141 | 0.0 | 3.2 | 0.00 | 0.00 | 0.00 | 44 | 1019.2 |
| 20260905211532 | 22 | 153 | 0.0 | 4.8 | 0.00 | 0.00 | 0.00 | 46 | 1019.3 |
| 20260905210028 | 22 | 140 | 0.0 | 4.8 | 0.00 | 0.00 | 0.00 | 46 | 1019.3 |
| 20260905204532 | 21 | 157 | 0.0 | 3.2 | 0.00 | 0.00 | 0.00 | 46 | 1019.3 |
| 20260905203031 | 22 | 149 | 1.6 | 6.4 | 0.00 | 0.00 | 0.00 | 45 | 1019.3 |
| 20260905201531 | 22 | 175 | 0.0 | 4.8 | 0.00 | 0.00 | 0.00 | 47 | 1019.4 |
| 20260905200028 | 22 | 185 | 0.0 | 4.8 | 0.00 | 0.00 | 0.00 | 48 | 1019.6 |
| 20260905194604 | 22 | 140 | 1.6 | 8.0 | 0.00 | 0.00 | 0.00 | 50 | 1019.8 |
| 20260905193031 | 20 | 85 | 0.0 | 1.6 | 0.00 | 0.00 | 0.00 | 55 | 1020.0 |
| 20260905191533 | 18 | 67 | 0.0 | 1.6 | 0.00 | 0.00 | 0.00 | 60 | 1020.3 |
| 20260905184606 | 17 | 50 | 0.0 | 0.0 | 0.00 | 0.00 | 0.00 | 64 | 1020.7 |
| 20260905183034 | -17 | 0 | 0.0 | 0.0 | 0.00 | 0.00 | 0.00 | 100 | |
| 20260905181531 | -17 | 0 | 0.0 | 0.0 | 0.00 | 0.00 | 0.00 | 100 | |
| 20260905180031 | -17 | 0 | 0.0 | 0.0 | 0.00 | 0.00 | 0.00 | 100 | |
| 20260905174603 | -17 | 0 | 0.0 | 0.0 | 0.00 | 0.00 | 0.00 | 100 | |
| 20260905171644 | -17 | 0 | 0.0 | 0.0 | 0.00 | 0.00 | 0.00 | 100 | |
| 20260905170030 | 14 | 225 | 0.0 | 0.0 | 0.00 | 0.00 | 0.00 | 75 | 1020.8 |
| 20260905163030 | 13 | 225 | 0.0 | 1.6 | 0.00 | 0.00 | 0.00 | 78 | 1020.8 |
| 20260905161529 | 12 | 225 | 0.0 | 1.6 | 0.00 | 0.00 | 0.00 | 80 | 1020.8 |
| 20260905160030 | 11 | 225 | 0.0 | 1.6 | 0.00 | 0.00 | 0.00 | 84 | 1020.8 |
| 20260905154604 | 11 | 225 | 0.0 | 4.8 | 0.00 | 0.00 | 0.00 | 85 | 1020.7 |
| 20260905153031 | 10 | 225 | 1.6 | 4.8 | 0.00 | 0.00 | 0.00 | 85 | 1020.7 |
| 20260905150031 | 10 | 233 | 1.6 | 4.8 | 0.00 | 0.00 | 0.00 | 86 | 1020.7 |
| 20260905143030 | 8 | 244 | 1.6 | 4.8 | 0.00 | 0.00 | 0.00 | 87 | 1020.5 |
| 20260905140031 | 8 | 229 | 3.2 | 6.4 | 0.00 | 0.00 | 0.00 | 88 | 1020.3 |
| 20260905134605 | 8 | 227 | 1.6 | 4.8 | 0.00 | 0.00 | 0.00 | 89 | 1020.2 |
| 20260905133031 | 8 | 234 | 1.6 | 4.8 | 0.00 | 0.00 | 0.00 | 89 | 1019.9 |
| 20260905131530 | 8 | 225 | 1.6 | 4.8 | 0.00 | 0.00 | 0.00 | 89 | 1019.9 |
| 20260905130031 | 8 | 254 | 1.6 | 4.8 | 0.00 | 0.00 | 0.00 | 90 | 1019.8 |
| 20260905123032 | 8 | 247 | 1.6 | 3.2 | 0.00 | 0.00 | 0.00 | 88 | 1019.7 |
| 20260905121528 | 9 | 253 | 0.0 | 4.8 | 0.00 | 0.00 | 0.00 | 88 | 1019.7 |
| 20260905120029 | 10 | 253 | 1.6 | 3.2 | 0.00 | 0.00 | 0.00 | 88 | 1019.7 |
| 20260905114531 | 10 | 225 | 1.6 | 4.8 | 0.00 | 0.00 | 0.00 | 87 | 1019.7 |
| 20260905111533 | 10 | 225 | 0.0 | 1.6 | 0.00 | 0.00 | 0.00 | 86 | 1019.6 |
| 20260905110031 | 10 | 225 | 1.6 | 3.2 | 0.00 | 0.00 | 0.00 | 87 | 1019.7 |
| 20260905104530 | 10 | 226 | 1.6 | 4.8 | 0.00 | 0.00 | 0.00 | 87 | 1019.6 |
| 20260905103032 | 10 | 240 | 1.6 | 3.2 | 0.00 | 0.00 | 0.00 | 86 | 1019.5 |
| 20260905100031 | 11 | 244 | 1.6 | 4.8 | 0.00 | 0.00 | 0.00 | 84 | 1019.7 |
| 20260905091530 | 10 | 237 | 1.6 | 6.4 | 0.00 | 0.00 | 0.00 | 83 | 1019.6 |
| 20260905090031 | 10 | 225 | 3.2 | 4.8 | 0.00 | 0.00 | 0.00 | 84 | 1019.5 |
| 20260905084531 | 10 | 228 | 1.6 | 3.2 | 0.00 | 0.00 | 0.00 | 85 | 1019.4 |
| 20260905083030 | -17 | 0 | 0.0 | 0.0 | 0.00 | 0.00 | 0.00 | 100 | |
| 20260905081531 | -17 | 0 | 0.0 | 0.0 | 0.00 | 0.00 | 0.00 | 100 | |
| 20260905080032 | 13 | 270 | 0.0 | 0.0 | 0.00 | 0.00 | 0.00 | 71 | 1018.2 |
| 20260905074531 | -17 | 0 | 0.0 | 0.0 | 0.00 | 0.00 | 0.00 | 100 | |
| 20260905073031 | -17 | 0 | 0.0 | 0.0 | 0.00 | 0.00 | 0.00 | 100 | |
| 20260905071532 | -17 | 0 | 0.0 | 0.0 | 0.00 | 0.00 | 0.00 | 100 | |
| 20260905070030 | -17 | 0 | 0.0 | 0.0 | 0.00 | 0.00 | 0.00 | 100 | |
| 20260905064531 | -17 | 0 | 0.0 | 0.0 | 0.00 | 0.00 | 0.00 | 100 | |
| 20260905063029 | -17 | 0 | 0.0 | 0.0 | 0.00 | 0.00 | 0.00 | 100 | |
| 20260905061531 | -17 | 0 | 0.0 | 0.0 | 0.00 | 0.00 | 0.00 | 100 | |
| 20260905060031 | -17 | 0 | 0.0 | 0.0 | 0.00 | 0.00 | 0.00 | 100 | |
| 20260905054531 | 15 | 45 | 0.0 | 0.0 | 0.00 | 0.00 | 0.00 | 65 | 1017.3 |
| 20260905053031 | -17 | 0 | 0.0 | 0.0 | 0.00 | 0.00 | 0.00 | 100 | |
| 20260905051532 | -17 | 0 | 0.0 | 0.0 | 0.00 | 0.00 | 0.00 | 100 | |
| 20260905050030 | -17 | 0 | 0.0 | 0.0 | 0.00 | 0.00 | 0.00 | 100 | |
| 20260905044532 | -17 | 0 | 0.0 | 0.0 | 0.00 | 0.00 | 0.00 | 100 | |
| 20260905041531 | 17 | 45 | 0.0 | 0.0 | 0.00 | 0.00 | 0.00 | 59 | 1017.0 |
| 20260905040030 | -17 | 0 | 0.0 | 0.0 | 0.00 | 0.00 | 0.00 | 100 | |
| 20260905034532 | -17 | 0 | 0.0 | 0.0 | 0.00 | 0.00 | 0.00 | 100 | |
| 20260905033032 | -17 | 0 | 0.0 | 0.0 | 0.00 | 0.00 | 0.00 | 100 | |
| 20260905031606 | -17 | 0 | 0.0 | 0.0 | 0.00 | 0.00 | 0.00 | 100 | |
| 20260905030105 | -17 | 0 | 0.0 | 0.0 | 0.00 | 0.00 | 0.00 | 100 | |
| 20260905024531 | -17 | 0 | 0.0 | 0.0 | 0.00 | 0.00 | 0.00 | 100 | |
| 20260905023032 | -17 | 0 | 0.0 | 0.0 | 0.00 | 0.00 | 0.00 | 100 | |
| 20260905021532 | -17 | 0 | 0.0 | 0.0 | 0.00 | 0.00 | 0.00 | 100 |